Showing default

PODSAT, 43229

Orbit data source: Space-Track

PODSAT, 43229 is a payload satellite owned by DARPA (US) that was launched on Tue, 06 Mar 2018 UTC via an FALCON 9 launch vehicle from the Air Force Eastern Test Range (AFETR). Payload-class satellites include a variety of spacecraft equipped with specific instruments for various scientific and technological missions. These include communications satellites like Starlink; space stations such as the ISS; scientific satellites like the Hubble; Earth observation satellites from companies like Planet Labs, Umbra, and HawkEye 360; GPS; miniature CubeSats for education and research; and military/defense satellites.

Loading next visibility...
Identifier
43229, 2018-023B
Orbit
Active
Country
Flag of USUS
Related business
Manufacturer
NovaWurks
Mission
Operational Defense Technology
Bus & Motor
SIMPL, Unknown motor
Mass
~90 kg wet, ~90 kg dry
Launch date (UTC)
2018-03-06 (8 years ago)
Launch vehicle
FALCON 9
Launch site
Air Force Eastern Test Range (AFETR)
Object type
Payload
Rocket body
Debris
Shape & HBR
Box, 0.1 m
Radar Cross Section
0.135 m², Medium (>0.1 m² and < 1m²)

Expand to show TLE details & history
Last TLE update: 21 hours ago

TLE from 21 hours ago
0 PODSAT
1 43229U 18023B   25340.76801796  .00098384 -26422-6  86765-3 0  9992
2 43229  26.8141 189.6347 3654366 123.1282 277.3739  8.23339317176577
Epoch: 2025-12-06T18:25Z
TLE epoch observation values (Epoch: 2025-12-06T18:25:56.751Z)
Latitude
-0.00001°
Longitude
-162.6428°
Altitude
4,833.515 km
Speed
5.713 km/s
True Right ascension
12h 38m 32s
True Declination
0° 00' 00"
Sunlit
Object was in daylight at epoch
Visualization orbit readout
Latitude
Unknown
Longitude
Unknown
Altitude
Unknown
Speed
Unknown
Apparent Right ascension
Unknown
Apparent Declination
Unknown
Sunlit
N/A
Visualization observer readout
Local Sidereal Time
13:32:31
Azimuth
Unknown
Elevation
Unknown
Doppler factor
Unknown
Orbital elements
Apogee altitude
7,772.455 km
Perigee altitude
198.11 km
Semi-major axis
10,363.419 km
Eccentricity
0.36544
Inclination
26.8141°
RAAN
189.6347°
Arg. of periapsis
123.1282°
True anomaly
236.91654°
Mean anomaly
277.3739°
Eccentric anomaly
256.97465°
Mean motion
2.05726 °/min
Orbital period
174.99 mins
BSTAR
0.00086765
Loading maneuver chart data...
Computing Atmospheric mass density...
Loading historical data...
Loading historical data...
Loading historical data...
Loading historical data...
Loading historical data...
Loading historical data...
Loading historical data...
Other satellites on launch #23 in the year 2018 (2018-03-06 UTC)

Documentation

Showing up to 5 results
|